www.pogodaiklimat.ru

Погода и климат >> Архив погоды >> Индия >> Agra


ПОГОДА в Agra

  • Прогноз погоды в Agra
  • Монитор погоды в Agra
  • Климат города

АРХИВ ПОГОДЫ в Agra

Время (UTC), дата Ветер
(напр.,м/с)
 
Видим.   Явления Облачность Т
(С)
Тd
(С)
f
(%)
Тe
(С)
Тes
(С)
Комфортность P
(гПа)
Po
(гПа)
Тmin
(С)
Tmax
(С)
R
(мм)
R24
(мм)
S
(см)
03 19.09 нст 1 4000 м мгла ясно +29.6 +23.1 68 +40 +46 очень
душно
1007.2 1007.0 +23.8
06 19.09 З 2 4000 м ясно +33.7 +23.2 54 +44 +61 опасность
перегрева
1005.8 1006.0
12 19.09 СЗ 4 4000 м 3/3 600 м
[Sc]
+33.4 +19.1 43 +39 +39 очень
душно
1002.5 1003.0 +35.6
00 20.09 нст 1 4000 м ясно +24.2 +22.7 91 +32 +32 очень
душно
1004.6 1005.0
03 20.09 нст 1 4000 м мгла 1/0
[Ac trans]
+28.7 +23.0 71 +38 +44 очень
душно
1006.4 1006.0 +23.6
06 20.09 СЗ 2 4000 м 3/0
[Ci fib]
+33.2 +23.2 56 +44 +59 опасность
перегрева
1006.0 1006.0
12 20.09 В 2 4000 м 4/4 600 м
[Sc]
+32.5 +21.6 53 +41 +41 опасность
перегрева
1003.0 1003.0 +35.6
00 21.09 штиль 0 50 км дымка ?/? +26.1 +22.9 83 +35 +35 очень
душно
1006.0 1006.0
03 21.09 В 4 4000 м 5/4 600 м
[Sc Ac trans]
+28.2 +23.4 75 +38 +40 очень
душно
1007.8 1008.0 +25.6
06 21.09 В 5 4000 м 8/5 600 м
[Sc Ac trans]
+29.9 +23.3 68 +40 +43 очень
душно
1008.7 1009.0
12 21.09 С 5 4000 м {дождь} 9/6 300 м
[Frnb Ac trans]
+27.0 +23.3 80 +36 +37 очень
душно
1005.5 1006.0 +31.9 2
03 22.09 В 4 4000 м 10/6 300 м
[Frnb Ac trans]
+26.1 +23.4 85 +35 +36 очень
душно
1007.0 1007.0 +24.7 3
06 22.09 В 6 4000 м 9/3 300 м
[Frnb Ac trans]
+28.3 +23.6 76 +39 +41 очень
душно
1007.7 1008.0
12 22.09 В 4 4000 м слабый дождь 10/6 300 м
[Sc Ac trans]
+26.7 +23.6 83 +36 +36 очень
душно
1005.2 1005.0 +29.7 0.0
00 23.09 В 4 4000 м 6/3 600 м
[Sc Ac trans]
+25.6 +21.9 80 +33 +33 очень
душно
1009.0 1009.0 0.0
03 23.09 В 4 4000 м 8/4 600 м
[Sc Ac trans]
+26.8 +22.7 78 +35 +36 очень
душно
1008.7 1009.0 +25.4 0.0
06 23.09 ЮВ 4 4000 м 8/4 600 м
[Sc Ac trans]
+30.6 +23.6 66 +41 +45 опасность
перегрева
1008.7 1009.0
12 23.09 В 3 4000 м {дождь} 8/6 600 м
[Cb cap Ac trans]
+27.1 +24.3 85 +38 +38 очень
душно
1006.2 1006.0 +32.0 3
03 24.09 ЮВ 5 4000 м 6/4 600 м
[Sc Ac trans]
+27.4 +23.0 77 +37 +38 очень
душно
1006.7 1007.0 +24.9 3
06 24.09 Ю 5 2000 м дождь 10/6 200 м
[Frnb Ac trans]
+24.9 +24.0 95 +34 +36 очень
душно
1007.0 1007.0 3
12 24.09 Ю 3 4000 м слабый дождь 9/4 600 м
[Sc Ac trans]
+27.5 +24.7 85 +39 +39 очень
душно
1005.2 1005.0 +28.3 5
00 25.09 нст 1 4000 м 6/4 600 м
[Sc Ac trans]
+25.2 +24.6 96 +35 +35 очень
душно
1006.4 1006.0 5
03 25.09 СЗ 2 4000 м 3/3 600 м
[Sc]
+26.2 +22.3 79 +34 +37 очень
душно
1008.5 1009.0 +22.8 5
06 25.09 З 5 4000 м 1/1 600 м
[Sc]
+30.0 +21.7 61 +38 +46 очень
душно
1008.6 1009.0
12 25.09 СЗ 3 4000 м 3/3 600 м
[Sc]
+31.0 +21.9 58 +39 +40 очень
душно
1005.4 1005.0 +32.6

 

Местоположение метеостанции Agra (Uttar Pradesh, Индия): широта 27.15 долгота 77.97 высота над уровнем моря 169 м.

В архиве по умолчанию представлена погода в Agra за последнюю неделю. Архивные данные за месяц целиком и за предыдущие месяцы, начиная с января 2011 года, Вы можете получить, выбрав интересующий диапазон дат из раскрывающегося списка и нажав кнопку "Ввод!".


*Определитесь, кто Вы:
робот инопланетянин человек

Внимание! Время в таблицах - всемирное. Для получения местного времени необходимо прибавить поправку, которая в Agra равна 5.5 ч.

Смотрите также архив погоды в соседних городах и на ближайших метеорологических станциях:

Погода в Gwalior (Madhya Pradesh, Индия) (106 км)
Погода в New Delhi Aya Nagar (Delhi, Индия) (169 км)
Погода в New Delhi (Delhi, Индия) (176 км)
Погода в Ridge (Delhi, Индия) (178 км)
Погода в New Delhi Airport (Delhi, Индия) (179 км)
Погода в Bareilly (Uttar Pradesh, Индия) (196 км)
Погода в Jhansi (Uttar Pradesh, Индия) (200 км)
Погода в Shivpuri (Madhya Pradesh, Индия) (205 км)
Погода в Sheopur (Madhya Pradesh, Индия) (209 км)
Погода в Meerut (Uttar Pradesh, Индия) (209 км)

Пояснения к столбцам:

Ветер - указаны скорость ветра в м/с - средняя за 10 мин, порывы в срок и между сроками (в фигурных скобках) и направление, откуда дует ветер: С - северный, СВ - северо-восточный, В - восточный, ЮВ - юго-восточный, Ю - южный, ЮЗ - юго-западный, З - западный, СЗ - северо-западный.
Видимость - горизонтальная дальность видимости в метрах или километрах. При видимости от 1 до 10 км при отсутствии осадков обычно наблюдается дымка, при ухудшении видимости до 1 км и менее - туман. В сухую погоду видимость может ухудшаться дымом, пылью или мглою.
Явления - указаны атмосферные явления, наблюдавшиеся в срок или в последний час перед сроком; фигурными скобками обозначены явления, наблюдавшиеся между сроками (за 1-3 часа до срока); квадратными скобками обозначены град или гололедные отложения с указанием их диаметра в мм.
Облачность - указаны через наклонную черту общая и нижняя облачность в баллах и высота нижней границы облаков в метрах; квадратными скобками обозначены формы облаков: Ci - перистые, Cs - перисто-слоистые, Cc - перисто-кучевые, Ac - высококучевые, As - высокослоистые, Sc - слоисто-кучевые, Ns - слоисто-дождевые, Cu - кучевые, Cb - кучево-дождевые. Подробнее классификацию облаков см. в Атласе облаков (PDF).
T - Температура воздуха - температура, измеренная на высоте 2 м над землей.
Td - Температура точки росы - температура, при понижении до которой содержащийся в воздухе водяной пар достигнет насыщения.
f - Относительная влажность воздуха - влажноcть воздуха, измеренная на высоте 2 м над землей.
Te - Эффективная температура - температура, которую ощущает одетый по сезону человек в тени. Характеристика душности погоды. При расчете учитывается влияние влажности воздуха и скорости ветра на теплоощущения человека.
Tes - Эффективная температура на солнце - температура, которую ощущает человек, с поправкой на солнечный нагрев. Характеристика знойности погоды. Зависит от высоты солнца над горизонтом, облачности и скорости ветра. Ночью, в пасмурную погоду, а также при ветре 12 м/с и более поправка равна нулю.
P - Атмосферное давление - приведенное к уровню моря атмосферное давление.
Po - Атмосферное давление - измеренное на уровне метеостанции атмосферное давление.
Tmin - Минимальная температура - минимум температуры воздуха на высоте 2 м над землей.
Tmax - Максимальная температура - максимум температуры воздуха на высоте 2 м над землей.
R - Количество осадков - Количество выпавших осадков за период времени, мм. При наведении курсора мыши на число - период времени, за который выпало указанное количество осадков.
R24 - Количество осадков - Количество выпавших осадков за 24 часа, мм.
S - Снежный покров - Высота снежного покрова, см. При наведении курсора мыши на число - состояние снежного покрова и степень покрытия местности в баллах.